星链-31878 (STARLINK-31878 )

导读 | 豆包AI

STARLINK-31878是美国SpaceX星链星座中的一颗卫星,于2024年6月8日发射。星链项目旨在构建全球卫星互联网星座,为地面偏远地区等提供高速互联网接入服务。该卫星加入星座后,进一步扩充了星链网络的覆盖能力与服务容量,推动低轨卫星通信网络的部署进程。

基本信息
目录编号:
60031
目录名称:
STARLINK-31878
国际标识:
2024-111R
轨道中心:
EARTH
卫星名称:
星链-31878
卫星全名:
星链-31878 (STARLINK-31878 )
卫星状态:
在轨 (已飞行645 天)
发射日期:
2024-06-08 UTC
国别 :
美国 (US)
星等 :
--
轨道信息
数据来源 国际轨道数据
星历时间: 2026-03-15T09:30:59+0800
16小时前
查看轨道信息
半长轴: 6853.448km
偏心率: 0.0000893
轨道倾角: 53.162°
近地点辐角 79.392°
升交点赤经 358.897°
平近点角 280.718°
近地点: 474.698km
远地点: 475.924km
周期: 94.107分钟
每日圈数: 15.301681
详细信息
固有亮度:
5
最大亮度:
1.5
卫星平台:
Starlink v2.0 mini
覆盖范围:
全球
运营商:
太空探索技术公司
运营商所在国:
美国
制造商(研发单位):
太空探索技术公司
制造商所在国:
美国
使用方式:
暂无
卫星简介
星链(Starlink)计划是由太空探索技术公司(SpaceX)提出的一个巨型低轨卫星互联网星座项目,计划在2019年至2024年间在太空搭建由约1.2万颗卫星组成的“星链”网络,其中1584颗将部署在地球上空550千米处的近地轨道,并从2020年开始工作。该卫星仍在工作。
2D轨道图
3D轨道图
轨道高度分析图
轨道倾角分析图
轨道综合分析图
查看轨道综合分析图